FENGYUN 1C DEB, 30178

Orbit data source: Space-Track

FENGYUN 1C DEB, 30178 is space debris in SSO originally from a launch on Mon, 10 May 1999 UTC launched from the Taiyaun Space Center, China (TSC). Fengyun 1C debris stems from the Chinese weather satellite Fengyun-1C, which was intentionally destroyed by a Chinese anti-satellite missile in 2007. This event dramatically increased the amount of space debris, with thousands of trackable fragments posing hazards to satellites and human spaceflight. The Fengyun 1C debris cloud has become a focal point in discussions about space sustainability and the need for international regulations to prevent the creation of new debris.

Loading next visibility...
Identifier
30178, 1999-025UK
Orbit
SSO
Country
Flag of CNCN / PRC
Related business
Manufacturer
Unknown
Mission
Spacecraft
Bus & Motor
Unknown
Mass
Unknown
Launch date (UTC)
1999-05-10 (27 years ago)
Launch vehicle
Unknown
Launch site
Taiyaun Space Center, China (TSC)
Object type
Payload
Rocket body
Debris
Shape & HBR
Unknown shape, 0.1 m
Radar Cross Section
Medium (>0.1 m² and <1 m²)

Expand to show TLE details & history
Last TLE update: 1 day ago

TLE from 1 day ago
0 FENGYUN 1C DEB
1 30178U 99025UK  26255.11418318  .00000688  00000-0  78868-3 0  9993
2 30178 102.2544 201.4044 0278264 224.2168 272.9408 13.59501983968850
Epoch: 2026-09-12T02:44Z
TLE epoch observation values (Epoch: 2026-09-12T02:44:25.426Z)
Latitude
44.78747°
Longitude
1.55588°
Altitude
1,039.207 km
Speed
7.339 km/s
True Right ascension
02h 15m 09s
True Declination
44° 37' 19"
Sunlit
Object was in daylight at epoch
Visualization orbit readout
Latitude
Unknown
Longitude
Unknown
Altitude
Unknown
Speed
Unknown
Apparent Right ascension
Unknown
Apparent Declination
Unknown
Sunlit
N/A
Visualization observer readout
Local Sidereal Time
01:49:32
Azimuth
Unknown
Elevation
Unknown
Doppler factor
Unknown
Orbital elements
Apogee altitude
1,241.216 km
Perigee altitude
828.657 km
Semi-major axis
7,413.074 km
Eccentricity
0.02783
Inclination
102.2544°
RAAN
201.4044°
Arg. of periapsis
224.2168°
True anomaly
269.75228°
Mean anomaly
272.9408°
Eccentric anomaly
271.34691°
Mean motion
3.40052 °/min
Orbital period
105.87 mins
BSTAR
0.00078868
Loading maneuver chart data...
Computing Atmospheric mass density...

Documentation

Showing up to 5 results
|